Location: Limoges
(45.8500°N, 1.2500°E)
Time: 02:20:21
(UTC+01:00)

ISS - Pass Details

Date: 06 December 2020
Orbit: 418 x 419 km, 51.6° (Epoch: 17 January)

Event Time Altitude Azimuth Distance (km) Brightness Sun altitude
Rises 18:10:13 0° 298° (WNW) 2,368 0.7 -10.1°
Reaches altitude 10° 18:12:20 10° 301° (WNW) 1,502 -0.4 -10.4°
Maximum altitude 18:15:42 69° 25° (NNE) 452 -3.8 -11.0°
Enters shadow 18:18:45 12° 109° (ESE) 1,380 -1.6 -11.5°
